Weather History for Newark, NJ

Change the Weather History Date:

Saturday, April 7, 2012

  Actual Average Record
Temperature  
Mean Temperature 52 °F 50 °F  
Max Temperature 63 °F 59 °F 92 °F (2010)
Min Temperature 41 °F 41 °F 16 °F (1982)
Degree Days  
Heating Degree Days 13 15  
Month to date heating degree days 92 115  
Since 1 July heating degree days 3423 4459  
Cooling Degree Days 0 0  
Month to date cooling degree days 0 0  
Year to date cooling degree days 5 1  
Growing Degree Days 2 (Base 50)    
Moisture  
Dew Point 13 °F    
Average Humidity 23    
Maximum Humidity 34    
Minimum Humidity 11    
Precipitation  
Precipitation 0.00 in 0.14 in 1.78 in (1953)
Month to date precipitation 0.37 1.02  
Year to date precipitation 5.64 11.62  
Snow  
Snow 0.00 in 0.10 in 4.40 in (2003)
Month to date snowfall 0.0 0.4  
Since 1 July snowfall 8.8 28.0  
Snow Depth 0.00 in    
Sea Level Pressure  
Sea Level Pressure 30.03 in    
Wind  
Wind Speed 15 mph (NW)    
Max Wind Speed 28 mph    
Max Gust Speed 35 mph    
Visibility 10 miles    
Events      
T = Trace of Precipitation, MM = Missing Value Source: NWS Daily Summary

Daily Weather History Graph

Daily Weather History Graph

Search for Another Location

Airport:

Trip Planner

Search our weather history database for the weather conditions in past years. The results will help you decide how hot, cold, wet, or windy it might be!

Date:

Astronomy

Apr. 07, 2012 Rise Set
Actual Time 6:29 AM EDT 7:28 PM EDT
Civil Twilight 6:01 AM EDT 7:56 PM EDT
Nautical Twilight 5:28 AM EDT 8:29 PM EDT
Astronomical Twilight 4:54 AM EDT 9:04 PM EDT
Moon 8:59 PM EDT (4/7) 6:39 AM EDT (4/7)
Length of Visible Light 13h 54m
Length of Day
12h 58m
Full, 99% of the Moon is Illuminated
Apr 7
Full
Apr 13
Last Quarter
Apr 21
New
Apr 29
First Quarter
May 5
Full

Hourly Weather History & Observations

Time (EDT) Temp. Windchill Dew Point Humidity Pressure Visibility Wind Dir Wind Speed Gust Speed Precip Events Conditions
12:51 AM 46.0 °F 39.6 °F 15.1 °F 29% 30.04 in 10.0 mi NNW 15.0 mph - N/A   Scattered Clouds
1:51 AM 45.0 °F 38.2 °F 15.1 °F 30% 30.05 in 10.0 mi NNW 15.0 mph - N/A   Partly Cloudy
2:51 AM 45.0 °F 39.7 °F 15.1 °F 30% 30.05 in 10.0 mi NNW 10.4 mph - N/A   Clear
3:51 AM 43.0 °F 39.5 °F 15.1 °F 32% 30.05 in 10.0 mi NW 5.8 mph - N/A   Clear
4:51 AM 42.8 °F 37.0 °F 14.0 °F 31% 30.05 in 10.0 mi NW 10.4 mph - N/A   Clear
5:51 AM 42.1 °F 37.1 °F 15.1 °F 34% 30.06 in 10.0 mi WNW 8.1 mph - N/A   Partly Cloudy
6:51 AM 41.0 °F 34.7 °F 15.1 °F 35% 30.07 in 10.0 mi WNW 10.4 mph - N/A   Clear
7:51 AM 44.6 °F 38.1 °F 15.8 °F 31% 30.09 in 10.0 mi WNW 13.8 mph - N/A   Clear
8:51 AM 48.0 °F - 15.1 °F 27% 30.09 in 10.0 mi WNW 13.8 mph - N/A   Clear
9:51 AM 51.1 °F - 12.0 °F 21% 30.09 in 10.0 mi NW 16.1 mph - N/A   Clear
10:51 AM 54.0 °F - 8.1 °F 16% 30.07 in 10.0 mi NW 19.6 mph 26.5 mph N/A   Clear
11:51 AM 55.0 °F - 9.0 °F 16% 30.04 in 10.0 mi NW 15.0 mph 27.6 mph N/A   Clear
12:51 PM 57.9 °F - 9.0 °F 14% 30.01 in 10.0 mi NW 21.9 mph 28.8 mph N/A   Clear
1:51 PM 60.1 °F - 10.0 °F 14% 29.99 in 10.0 mi NW 18.4 mph 29.9 mph N/A   Partly Cloudy
2:51 PM 60.1 °F - 7.0 °F 12% 29.97 in 10.0 mi NW 16.1 mph 29.9 mph N/A   Partly Cloudy
3:51 PM 61.0 °F - 8.1 °F 12% 29.95 in 10.0 mi NW 24.2 mph 34.5 mph N/A   Partly Cloudy
4:51 PM 62.1 °F - 10.0 °F 13% 29.95 in 10.0 mi NNW 19.6 mph 29.9 mph N/A   Partly Cloudy
5:51 PM 61.0 °F - 15.1 °F 17% 29.96 in 10.0 mi NW 16.1 mph 33.4 mph N/A   Partly Cloudy
6:51 PM 59.0 °F - 17.1 °F 20% 29.97 in 10.0 mi NNW 17.3 mph 26.5 mph N/A   Scattered Clouds
7:51 PM 55.9 °F - 16.0 °F 21% 29.99 in 10.0 mi WNW 15.0 mph - N/A   Scattered Clouds
8:51 PM 55.0 °F - 14.0 °F 20% 30.02 in 10.0 mi NW 16.1 mph 23.0 mph N/A   Partly Cloudy
9:51 PM 53.6 °F - 15.8 °F 22% 30.04 in 10.0 mi NNW 19.6 mph 26.5 mph N/A   Clear
10:51 PM 52.0 °F - 15.1 °F 23% 30.04 in 10.0 mi NNW 19.6 mph 28.8 mph N/A   Scattered Clouds
11:51 PM 51.8 °F - 14.0 °F 22% 30.03 in 10.0 mi NNW 13.8 mph 21.9 mph N/A   Mostly Cloudy